Weather History for KEST - October, 2011

Change the Weather History Date:

Saturday, October 8, 2011

  Actual Average Record
Temperature  
Mean Temperature 71 °F 51 °F  
Max Temperature 80 °F 64 °F 90 °F (2010)
Min Temperature 62 °F 39 °F 18 °F (2000)
Degree Days  
Heating Degree Days 0 14  
Month to date heating degree days 28 102  
Since 1 July heating degree days 248 310  
Cooling Degree Days 6 0  
Month to date cooling degree days 19 4  
Year to date cooling degree days 765 591  
Growing Degree Days 22 (Base 50)    
Moisture  
Dew Point 56 °F    
Average Humidity 64    
Maximum Humidity 84    
Minimum Humidity 43    
Precipitation  
Precipitation T in 0.10 in 1.99 in (1970)
Month to date precipitation T 0.81  
Year to date precipitation 18.76  
Sea Level Pressure  
Sea Level Pressure 30.02 in    
Wind  
Wind Speed 14 mph (South)    
Max Wind Speed 26 mph    
Max Gust Speed 36 mph    
Visibility 10 miles    
Events      
T = Trace of Precipitation, MM = Missing Value Source: NWS Daily Summary

Daily Weather History Graph

Daily Weather History Graph

Search for Another Location

Airport or City:

Trip Planner

Search our weather history database for the weather conditions in past years. The results will help you decide how hot, cold, wet, or windy it might be!

Date:

Astronomy

Oct. 08, 2011 Rise Set
Actual Time 7:24 AM CDT 6:48 PM CDT
Civil Twilight 6:55 AM CDT 7:16 PM CDT
Nautical Twilight 6:22 AM CDT 7:49 PM CDT
Astronomical Twilight 5:49 AM CDT 8:22 PM CDT
Moon 5:02 PM CDT (10/8) 4:07 AM CDT (10/8)
Length of Visible Light 12h 20m
Length of Day
11h 23m
Waxing Gibbous, 90% of the Moon is Illuminated
Oct 8
Waxing Gibbous
Oct 11
Full
Oct 19
Last Quarter
Oct 26
New
Nov 2
First Quarter

Hourly Weather History & Observations

Time (CDT) Temp. Dew Point Humidity Pressure Visibility Wind Dir Wind Speed Gust Speed Precip Events Conditions
12:52 AM 71.1 °F 57.0 °F 61% 29.93 in 10.0 mi South 18.4 mph 26.5 mph N/A   Partly Cloudy
1:52 AM 71.1 °F 55.0 °F 57% 29.94 in 10.0 mi South 18.4 mph 31.1 mph N/A   Clear
2:52 AM 70.0 °F 55.0 °F 59% 29.95 in 10.0 mi South 17.3 mph 24.2 mph N/A   Clear
3:52 AM 68.0 °F 54.0 °F 61% 29.96 in 10.0 mi South 12.7 mph - N/A   Clear
4:52 AM 68.0 °F 53.1 °F 59% 29.97 in 10.0 mi South 16.1 mph - N/A   Clear
5:52 AM 66.0 °F 52.0 °F 60% 29.98 in 10.0 mi South 12.7 mph - N/A   Clear
6:52 AM 66.0 °F 52.0 °F 60% 30.01 in 10.0 mi South 15.0 mph - N/A   Overcast
7:52 AM 64.0 °F 52.0 °F 65% 30.03 in 10.0 mi South 10.4 mph - N/A   Mostly Cloudy
8:52 AM 64.9 °F 52.0 °F 63% 30.04 in 10.0 mi South 12.7 mph - N/A   Mostly Cloudy
9:52 AM 69.1 °F 52.0 °F 54% 30.04 in 10.0 mi South 18.4 mph - N/A   Clear
10:52 AM 73.9 °F 53.1 °F 48% 30.04 in 9.0 mi South 26.5 mph 32.2 mph N/A   Partly Cloudy
11:52 AM 77.0 °F 54.0 °F 45% 30.03 in 10.0 mi South 21.9 mph 32.2 mph N/A   Scattered Clouds
1:52 PM 78.1 °F 55.9 °F 46% 30.03 in 10.0 mi SSW 23.0 mph 29.9 mph N/A   Clear
2:52 PM 79.0 °F 57.0 °F 47% 30.02 in 10.0 mi South 16.1 mph 26.5 mph N/A   Clear
3:52 PM 79.0 °F 57.0 °F 47% 30.02 in 10.0 mi SSW 17.3 mph 24.2 mph N/A   Mostly Cloudy
4:52 PM 79.0 °F 57.9 °F 48% 30.03 in 10.0 mi SSW 17.3 mph 23.0 mph N/A   Mostly Cloudy
5:52 PM 75.9 °F 57.9 °F 54% 30.04 in 9.0 mi SSW 11.5 mph - N/A   Overcast
6:52 PM 73.9 °F 57.9 °F 57% 30.06 in 10.0 mi South 4.6 mph - N/A   Mostly Cloudy
8:52 PM 68.0 °F 61.0 °F 78% 30.09 in 10.0 mi South 6.9 mph - 0.00 in   Mostly Cloudy
9:52 PM 68.0 °F 61.0 °F 78% 30.09 in 10.0 mi SSE 8.1 mph - N/A   Overcast
10:52 PM 68.0 °F 60.1 °F 76% 30.10 in 10.0 mi SSW 3.5 mph - N/A   Overcast
11:52 PM 62.1 °F 57.9 °F 86% 30.10 in 10.0 mi SE 4.6 mph - N/A   Clear